• Join FlightAware (Why Join?)
  • Login
  • US Flag GB Flag 
20:26 EST


 

Airport Tracker/Info


-or-


 

Live Flight TrackerFlight Track Log ✈ N1910A ✈ 07-Jul-2014 ✈ KLAS - KPWA

Flight Track Log - Related Links

Times and Time Zones

All times are in EDT time to prevent confusion due to time zone crossing. See the N1910A flight status page for this flight to view local times or setup timezone preferences in your user account.

Time Position Orientation Groundspeed Altitude Reporting Facility
EDT Latitude Longitude Course Direction KTS MPH feet Rate Location/Type
12:52 36.0932 -115.1601 204° Southwest 91 105 2,100  Level FlightAware ADS-B (KVGT)
12:53 36.0536 -115.1836 103° East 189 217 3,200 1,403 Climbing Los Angeles Center
12:53 36.0355 -115.1933 203° Southwest 214 246 3,900 2,500 Climbing FlightAware ADS-B (KVGT)
12:53 36.0194 -115.2056 207° Southwest 213 245 4,700 2,100 Climbing Los Angeles Center
12:54 35.9803 -115.2742 235° Southwest 263 303 6,700 1,765 Climbing Los Angeles Center
12:55 35.9550 -115.2911 208° Southwest 272 313 7,200 1,615 Climbing Los Angeles Center
12:55 35.9486 -115.2908 182° South 259 298 7,400 2,571 Climbing FlightAware ADS-B (KVGT)
12:55 35.9248 -115.2850 158° South 260 299 8,100 1,900 Climbing FlightAware ADS-B (KVGT)
12:56 35.8803 -115.2628 163° South 283 326 9,300 2,039 Climbing Los Angeles Center
12:57 35.8667 -115.1572 99° East 304 350 11,600 2,274 Climbing Los Angeles Center
12:58 35.8221 -115.0964 103° East  Level FlightAware Approximate
12:58 35.8731 -115.0528 86° East 305 351 14,000  Level Los Angeles Center
12:59 35.8783 -114.9344 87° East 320 368 16,300 2,081 Climbing Los Angeles Center
13:00 35.8831 -114.8358 87° East 323 372 18,300 2,304 Climbing Los Angeles Center
13:01 35.8900 -114.7053 86° East 323 372 21,100 2,256 Climbing Los Angeles Center
13:02 35.8944 -114.5969 87° East 320 368 23,000 1,742 Climbing Los Angeles Center
13:03 35.8992 -114.4833 87° East 326 375 24,700 1,645 Climbing Los Angeles Center
13:04 35.9042 -114.3675 87° East 333 383 26,400 1,645 Climbing Los Angeles Center
13:05 35.9097 -114.2497 87° East 340 391 28,100 1,790 Climbing Los Angeles Center
13:06 35.9169 -114.1097 86° East 341 392 30,100 1,742 Climbing Los Angeles Center
13:07 35.9228 -113.9958 86° East 340 391 31,700 1,258 Climbing Los Angeles Center
13:08 35.9272 -113.8822 87° East 337 388 32,700 864 Climbing Los Angeles Center
13:09 35.9314 -113.7642 87° East 339 390 33,500 768 Climbing Los Angeles Center
13:10 35.9358 -113.6411 87° East 354 407 34,300 823 Climbing Los Angeles Center
13:11 35.9422 -113.5156 86° East 362 417 35,200 1,016 Climbing Los Angeles Center
13:12 35.9489 -113.3675 87° East 366 421 36,400 919 Climbing Los Angeles Center
13:13 35.9539 -113.2425 87° East 366 421 37,100 629 Climbing Los Angeles Center
13:14 35.9589 -113.1172 87° East 366 421 37,700 581 Climbing Los Angeles Center
13:15 35.9606 -112.9942 89° East 365 420 38,300 581 Climbing Los Angeles Center
13:16 35.9656 -112.8678 87° East 366 421 38,900 336 Climbing Los Angeles Center
13:17 35.9717 -112.7172 87° East 367 422 39,000 48 Climbing Los Angeles Center
13:19 35.9747 -112.5847 88° East 381 438 39,000  Level Los Angeles Center
13:20 35.9797 -112.4472 87° East 396 456 39,000  Level Los Angeles Center
13:21 35.9847 -112.3061 87° East 408 470 39,000  Level Los Angeles Center
13:22 35.9886 -112.1547 88° East 420 483 39,000  Level Los Angeles Center
13:23 35.9928 -112.0167 88° East 411 473 39,000  Level Los Angeles Center
13:24 35.9972 -111.8575 88° East 409 471 39,000  Level Los Angeles Center
13:25 36.0017 -111.7181 88° East 408 470 39,000  Level Los Angeles Center
13:26 36.0039 -111.6092 89° East 409 471 39,000  Level Denver Center
13:27 36.0072 -111.4419 89° East 408 470 39,000  Level Denver Center
13:28 36.0103 -111.3047 88° East 407 468 39,000  Level Denver Center
13:29 36.0128 -111.1661 89° East 406 467 39,000  Level Denver Center
13:30 36.0167 -111.0283 88° East 406 467 39,000  Level Denver Center
13:31 36.0183 -110.8892 89° East 406 467 39,000  Level Denver Center
13:32 36.0222 -110.7231 88° East 406 467 39,000  Level Denver Center
13:33 36.0250 -110.5850 89° East 406 467 39,000  Level Denver Center
13:34 36.0267 -110.4458 89° East 406 467 39,000  Level Denver Center
13:35 36.0283 -110.3081 89° East 406 467 39,000  Level Denver Center
13:36 36.0297 -110.1686 89° East 406 467 39,000  Level Denver Center
13:37 36.0319 -110.0208 89° East 406 467 39,000  Level Denver Center
13:38 36.0342 -109.8642 89° East 406 467 39,000  Level Albuquerque Center
13:39 36.0347 -109.7314 90° East 406 467 39,000  Level Denver Center
13:40 36.0361 -109.5744 89° East 406 467 39,000  Level Denver Center
13:41 36.0369 -109.4403 90° East 407 468 39,000  Level Denver Center
13:42 36.0381 -109.2831 89° East 406 467 39,000  Level Albuquerque Center
13:43 36.0386 -109.1572 90° East 408 470 39,000  Level Albuquerque Center
13:44 36.0400 -108.9911 89° East 412 474 39,000  Level Albuquerque Center
13:45 36.0411 -108.8492 89° East 412 474 39,000  Level Albuquerque Center
13:46 36.0397 -108.7081 91° East 413 475 39,000  Level Albuquerque Center
13:47 36.0400 -108.5675 90° East 412 474 39,000  Level Albuquerque Center
13:48 36.0397 -108.4139 90° East 412 474 39,000  Level Albuquerque Center
13:49 36.0392 -108.2783 90° East 411 473 39,000  Level Albuquerque Center
13:50 36.0386 -108.1219 90° East 411 473 39,000  Level Albuquerque Center
13:52 36.0386 -107.9878 90° East 411 473 39,000  Level Albuquerque Center
13:53 36.0375 -107.8322 90° East 410 472 39,000  Level Albuquerque Center
13:54 36.0358 -107.6986 91° East 409 471 39,000  Level Albuquerque Center
13:55 36.0358 -107.5436 90° East 409 471 39,000  Level Albuquerque Center
13:56 36.0336 -107.4114 91° East 408 470 39,000  Level Albuquerque Center
13:57 36.0325 -107.2558 90° East 407 468 39,000  Level Albuquerque Center
13:58 36.0311 -107.1236 91° East 407 468 39,000  Level Albuquerque Center
13:59 36.0286 -106.9689 91° East 406 467 39,000  Level Albuquerque Center
14:00 36.0272 -106.8364 91° East 405 466 39,000  Level Albuquerque Center
14:01 36.0239 -106.6831 91° East 404 465 39,000  Level Albuquerque Center
14:02 36.0231 -106.5517 90° East 404 465 39,000  Level Albuquerque Center
14:03 36.0208 -106.4192 91° East 404 465 39,000  Level Albuquerque Center
14:04 36.0172 -106.2806 92° East 404 465 39,000  Level Albuquerque Center
14:05 36.0150 -106.1147 91° East 403 464 39,000  Level Albuquerque Center
14:06 36.0117 -105.9758 92° East 403 464 39,000  Level Albuquerque Center
14:07 36.0078 -105.8378 92° East 403 464 39,000  Level Albuquerque Center
14:08 36.0050 -105.6997 91° East 402 463 39,000  Level Albuquerque Center
14:09 36.0006 -105.5614 92° East 402 463 39,000  Level Albuquerque Center
14:10 35.9961 -105.4106 92° East 398 458 39,000  Level Albuquerque Center
14:11 35.9931 -105.2681 91° East 402 463 39,000  Level Albuquerque Center
14:12 35.9900 -105.1281 92° East 403 464 39,000  Level Albuquerque Center
14:13 35.9850 -104.9869 92° East 404 465 39,000  Level Albuquerque Center
14:14 35.9803 -104.8481 92° East 404 465 39,000  Level Albuquerque Center
14:15 35.9750 -104.7092 93° East 404 465 39,000  Level Albuquerque Center
14:16 35.9708 -104.5681 92° East 404 465 39,000  Level Albuquerque Center
14:17 35.9647 -104.4031 93° East 404 465 39,000  Level Albuquerque Center
14:18 35.9603 -104.2633 92° East 404 465 39,000  Level Albuquerque Center
14:19 35.9553 -104.1233 92° East 404 465 39,000  Level Albuquerque Center
14:20 35.9494 -103.9819 93° East 404 465 39,000  Level Albuquerque Center
14:22 35.9447 -103.8392 92° East 406 467 39,000  Level Albuquerque Center
14:23 35.9392 -103.6992 93° East 406 467 39,000  Level Albuquerque Center
14:24 35.9325 -103.5583 93° East 406 467 39,000  Level Albuquerque Center
14:25 35.9258 -103.4164 93° East 407 468 39,000  Level Albuquerque Center
14:26 35.9200 -103.2772 93° East 407 468 39,000  Level Albuquerque Center
14:27 35.9125 -103.1144 93° East 404 465 39,000  Level Albuquerque Center
14:28 35.9064 -102.9767 93° East 404 465 39,000  Level Albuquerque Center
14:29 35.9000 -102.8492 94° East 402 463 39,000  Level Albuquerque Center
14:30 35.8939 -102.7131 93° East 402 463 39,000  Level Albuquerque Center
14:31 35.8872 -102.5778 93° East 400 460 39,000  Level Albuquerque Center
14:32 35.8775 -102.4144 94° East 399 459 39,000  Level Albuquerque Center
14:33 35.8722 -102.2792 93° East 398 458 39,000  Level Albuquerque Center
14:34 35.8644 -102.1439 94° East 397 457 39,000  Level Albuquerque Center
14:35 35.8567 -102.0078 94° East 397 457 39,000  Level Albuquerque Center
14:36 35.8500 -101.8703 93° East 398 458 39,000  Level Albuquerque Center
14:37 35.8417 -101.7336 94° East 398 458 39,000  Level Albuquerque Center
14:39 35.8247 -101.4608 94° East 397 457 39,000  Level Fort Worth Center
14:40 35.8167 -101.3247 94° East 397 457 39,000  Level Fort Worth Center
14:41 35.8078 -101.1875 95° East 397 457 39,000  Level Fort Worth Center
14:42 35.7989 -101.0517 95° East 397 457 39,000  Level Fort Worth Center
14:43 35.7892 -100.9167 95° East 397 457 39,000  Level Fort Worth Center
14:44 35.7811 -100.7786 94° East 397 457 39,000  Level Fort Worth Center
14:45 35.7739 -100.6450 94° East 392 451 39,000  Level Fort Worth Center
14:46 35.7631 -100.4839 95° East 391 450 39,000  Level Fort Worth Center
14:47 35.7539 -100.3483 95° East 394 453 39,000  Level Fort Worth Center
14:48 35.7450 -100.2133 95° East 393 452 39,000  Level Fort Worth Center
14:49 35.7350 -100.0783 95° East 394 453 39,000 -242 Level Fort Worth Center
14:50 35.7250 -99.9436 95° East 394 453 38,500 -726 Descending Fort Worth Center
14:51 35.7150 -99.8019 95° East 411 473 37,500 -1,056 Descending Fort Worth Center
14:52 35.7006 -99.6267 96° East 425 489 36,300 -1,056 Descending Fort Worth Center
14:53 35.6894 -99.4811 95° East 427 491 35,300 -629 Descending Fort Worth Center
14:54 35.6789 -99.3417 95° East 409 471 35,000 -387 Descending Fort Worth Center
14:55 35.6683 -99.2028 95° East 406 467 34,500 -774 Descending Fort Worth Center
14:56 35.6564 -99.0589 96° East 422 486 33,400 -1,597 Descending Fort Worth Center
14:58 35.6419 -98.8867 96° East 426 490 31,200 -2,419 Descending Fort Worth Center
14:59 35.6322 -98.7464 95° East 416 479 28,400 -2,710 Descending Fort Worth Center
15:00 35.6203 -98.6086 96° East 407 468 25,600 -2,640 Descending Fort Worth Center
15:01 35.6100 -98.4783 96° East 393 452 22,900 -2,944 Descending Fort Worth Center
15:01 35.5978 -98.3597 97° East 376 433 20,300 -2,710 Descending Fort Worth Center
15:02 35.5997 -98.3514 74° East 378 435 20,100 -2,754 Descending Fort Worth Center
15:02 35.5911 -98.2397 95° East 357 411 17,500 -3,290 Descending Fort Worth Center
15:03 35.5947 -98.2061 82° East 358 412 16,700 -2,754 Descending Fort Worth Center
15:03 35.5975 -98.1253 88° East 325 374 14,700 -2,613 Descending Fort Worth Center
15:04 35.6031 -98.0944 77° East 333 383 14,000 -2,200 Descending Fort Worth Center
15:04 35.6086 -98.0178 85° East 311 358 12,500 -2,129 Descending Fort Worth Center
15:05 35.6128 -97.9908 79° East 310 357 11,800 -2,754 Descending Fort Worth Center
15:05 35.6164 -97.9183 86° East 294 338 9,700 -3,097 Descending Fort Worth Center
15:06 35.6206 -97.8778 83° East 306 352 8,600 -2,557 Descending Fort Worth Center
15:06 35.6261 -97.8161 84° East 299 344 7,100 -2,323 Descending Fort Worth Center
15:07 35.6303 -97.7806 82° East 286 329 6,200 -1,964 Descending Fort Worth Center
15:07 35.6278 -97.7386 94° East 233 268 5,300 -1,452 Descending Fort Worth Center
15:08 35.6272 -97.6978 91° East 219 252 4,700 -1,701 Descending Fort Worth Center
15:08 35.6172 -97.6656 111° Southeast 158 182 3,400 -1,905 Descending Fort Worth Center
15:09 35.6050 -97.6492 133° Southeast 173 199 2,700 -1,400 Descending Fort Worth Center
15:09 35.5814 -97.6458 173° South 144 166 2,000 -968 Descending Fort Worth Center
15:10 35.5636 -97.6456 179° South 139 160 1,700 -643 Descending Fort Worth Center
15:12 35.5333 -97.6333 180° South  Level FlightAware Approximate
15:19 35.5342 -97.6471 180° South  Level Estimated